sat.trackr.live / text

‹ back to catalog

STARLINK-31281

NORAD 59077 · 2024-041D

PAYLOAD ACTIVE UNKNOWN

§ Identity

Operator
Country
US
Launch date
2024-02-29
Launch site
AFETR
Launch vehicle
Mass (kg)
RCS (m²)

Purposes: comms

External: N2YO · Heavens-Above · Gunter

§ Orbital elements

Epoch: 2026-05-24T23:39:29.757312Z

Period
94.27 min
Inclination
43.0040°
Eccentricity
0.0001952
Mean motion
15.27575432 rev/d
Perigee alt
481.7 km
Apogee alt
484.4 km
Semi-major
6,861.2 km
B*
3.4835e-5
RAAN
239.5221°
Arg perigee
279.2669°
Mean anomaly
80.7962°
Rev number
12,599

§ Raw data

STARLINK-312811 59077U 24041D   26144.98576108  .00000696  00000+0  34835-4 0  99972 59077  43.0040 239.5221 0001952 279.2669  80.7962 15.27575432125992

JSON: /api/v1/satellites/59077 · /tle

For live sub-satellite position, see the globe view (requires WebGL).

§ Visibility from observer

Set your observer location to see the next 7 days of passes ≥ 10°. The values pass through the URL so the page stays shareable.

No JS? Fill the form by hand. The geolocation button needs JavaScript.